When you browse on this site, cookies collect data to enhance your experience and personalize the content and advertising you see.
Visit our Privacy Policy to learn more. By continuing to use the site, you agree to this use of cookies and data.
  • In United Kingdom
  • List of Countries
  • For 7 days
  • Water Temperature
  • Weather Map
  • Weather Widgets
  • user-avatar
    Login

    Hourly Weather Pamporovo

    Today, 29 February, Saturday

    Time Temperature Precipitation Wind Pressure Humidity
    00:00 -9°C° 0 mm 4 mps 616 mmHg 80%
    01:00 -9°C° 0 mm 4 mps 616 mmHg 79%
    02:00 -9°C° 0 mm 4 mps 616 mmHg 77%
    03:00 -9°C° 0 mm 4 mps 616 mmHg 77%
    04:00 -11°C° 0 mm 5 mps 617 mmHg 78%
    05:00 -11°C° 0 mm 5 mps 617 mmHg 78%
    06:00 -11°C° 0 mm 5 mps 618 mmHg 76%
    07:00 -10°C° 0 mm 5 mps 619 mmHg 74%
    08:00 -10°C° 0 mm 5 mps 619 mmHg 73%
    09:00 -8°C° 0 mm 5 mps 620 mmHg 68%
    10:00 -5°C° 0 mm 4 mps 621 mmHg 62%
    11:00 -4°C° 0 mm 4 mps 622 mmHg 57%
    12:00 -2°C° 0 mm 3 mps 623 mmHg 54%
    13:00 -1°C° 0 mm 3 mps 623 mmHg 51%
    14:00 +1°C° 0 mm 2 mps 624 mmHg 48%
    15:00 +1°C° 0 mm 2 mps 624 mmHg 49%
    16:00 +1°C° 0 mm 1 mps 623 mmHg 51%
    17:00 +1°C° 0 mm 1 mps 623 mmHg 53%
    18:00 -1°C° 0 mm 1 mps 623 mmHg 62%
    19:00 -2°C° 0 mm 1 mps 622 mmHg 71%
    20:00 -4°C° 0 mm 1 mps 622 mmHg 80%
    21:00 -4°C° 0 mm 1 mps 622 mmHg 82%
    22:00 -4°C° 0 mm 1 mps 622 mmHg 83%
    23:00 -4°C° 0 mm 1 mps 622 mmHg 85%

    Tomorrow, 1 March, Sunday

    Time Temperature Precipitation Wind Pressure Humidity
    00:00 -4°C° 0 mm 1 mps 622 mmHg 85%
    01:00 -4°C° 0 mm 1 mps 622 mmHg 85%
    02:00 -4°C° 0 mm 1 mps 622 mmHg 84%
    03:00 -4°C° 0 mm 1 mps 622 mmHg 84%
    04:00 -4°C° 0 mm 1 mps 622 mmHg 83%
    05:00 -4°C° 0 mm 1 mps 621 mmHg 83%
    06:00 -3°C° 0 mm 1 mps 622 mmHg 81%
    07:00 -3°C° 0 mm 1 mps 622 mmHg 79%
    08:00 -3°C° 0 mm 1 mps 622 mmHg 76%
    09:00 0°C° 0 mm 1 mps 623 mmHg 68%
    10:00 +2°C° 0 mm 1 mps 624 mmHg 60%
    11:00 +4°C° 0 mm 1 mps 625 mmHg 51%
    12:00 +4°C° 0 mm 2 mps 624 mmHg 51%
    13:00 +4°C° 0 mm 2 mps 624 mmHg 51%
    14:00 +5°C° 0 mm 2 mps 624 mmHg 51%
    15:00 +4°C° 0 mm 2 mps 623 mmHg 56%
    16:00 +3°C° 0 mm 2 mps 623 mmHg 61%
    17:00 +4°C° 0 mm 1 mps 622 mmHg 66%
    18:00 +2°C° 0 mm 1 mps 622 mmHg 71%
    19:00 +1°C° 0 mm 1 mps 621 mmHg 77%
    20:00 -1°C° 0 mm 1 mps 621 mmHg 82%
    21:00 -1°C° 0 mm 1 mps 621 mmHg 81%
    22:00 -1°C° 0 mm 1 mps 621 mmHg 80%
    23:00 -2°C° 0 mm 1 mps 621 mmHg 79%

    Day after tomorrow, 2 March, Monday

    Time Temperature Precipitation Wind Pressure Humidity
    00:00 -2°C° 0 mm 1 mps 620 mmHg 77%
    01:00 -2°C° 0 mm 1 mps 620 mmHg 76%
    02:00 -4°C° 0 mm 2 mps 620 mmHg 74%
    03:00 -4°C° 0 mm 2 mps 620 mmHg 73%
    04:00 -4°C° 0 mm 2 mps 619 mmHg 73%
    05:00 -4°C° 0 mm 2 mps 619 mmHg 72%
    06:00 -3°C° 0 mm 2 mps 619 mmHg 72%
    07:00 -2°C° 0 mm 2 mps 620 mmHg 71%
    08:00 -2°C° 0 mm 2 mps 620 mmHg 71%
    09:00 0°C° 0 mm 3 mps 620 mmHg 67%
    10:00 +2°C° 0 mm 3 mps 621 mmHg 63%
    11:00 +4°C° 0 mm 3 mps 622 mmHg 59%
    12:00 +5°C° 0 mm 3 mps 622 mmHg 59%
    13:00 +7°C° 0 mm 3 mps 622 mmHg 59%
    14:00 +7°C° 0 mm 3 mps 622 mmHg 58%
    15:00 +5°C° 0 mm 3 mps 621 mmHg 63%
    16:00 +6°C° 0 mm 2 mps 621 mmHg 68%
    17:00 +5°C° 0 mm 2 mps 620 mmHg 72%
    18:00 +3°C° 0 mm 2 mps 620 mmHg 78%
    19:00 +2°C° 0 mm 2 mps 619 mmHg 83%
    20:00 -1°C° 0 mm 2 mps 619 mmHg 89%
    21:00 -1°C° 0 mm 2 mps 619 mmHg 89%
    22:00 -1°C° 0 mm 2 mps 619 mmHg 89%
    23:00 -1°C° 0 mm 2 mps 619 mmHg 89%

    3 March, Tuesday

    Time Temperature Precipitation Wind Pressure Humidity
    00:00 -1°C° 0 mm 2 mps 619 mmHg 89%
    01:00 +1°C° 0 mm 2 mps 619 mmHg 89%
    02:00 +1°C° 0 mm 2 mps 619 mmHg 89%
    03:00 +1°C° 0 mm 2 mps 619 mmHg 90%
    04:00 -1°C° 0 mm 2 mps 618 mmHg 91%
    05:00 -1°C° 0 mm 2 mps 618 mmHg 91%
    06:00 +1°C° 0 mm 2 mps 618 mmHg 92%
    07:00 +2°C° 0 mm 2 mps 618 mmHg 92%
    08:00 +1°C° 0 mm 3 mps 618 mmHg 92%
    09:00 +3°C° 0 mm 4 mps 619 mmHg 83%
    10:00 +3°C° 0 mm 5 mps 620 mmHg 73%
    11:00 +5°C° 0 mm 6 mps 620 mmHg 64%
    12:00 +5°C° 0 mm 7 mps 620 mmHg 61%
    13:00 +6°C° 0 mm 7 mps 620 mmHg 59%
    14:00 +6°C° 0 mm 8 mps 619 mmHg 56%
    15:00 +5°C° 0 mm 7 mps 619 mmHg 62%
    16:00 +4°C° 0 mm 7 mps 618 mmHg 67%
    17:00 +3°C° 0 mm 7 mps 617 mmHg 73%
    18:00 +3°C° 0.1 mm 6 mps 617 mmHg 78%
    19:00 +2°C° 0.1 mm 6 mps 617 mmHg 83%
    20:00 +1°C° 0.1 mm 5 mps 617 mmHg 88%
    21:00 +1°C° 0.2 mm 6 mps 617 mmHg 88%
    22:00 0°C° 0.2 mm 7 mps 616 mmHg 88%
    23:00 0°C° 0.2 mm 7 mps 616 mmHg 89%

    4 March, Wednesday

    Time Temperature Precipitation Wind Pressure Humidity
    00:00 0°C° 0.4 mm 7 mps 615 mmHg 89%
    01:00 0°C° 0.4 mm 7 mps 615 mmHg 90%
    02:00 0°C° 0.4 mm 7 mps 614 mmHg 91%
    03:00 0°C° 1.8 mm 7 mps 614 mmHg 92%
    04:00 0°C° 1.8 mm 7 mps 613 mmHg 93%
    05:00 0°C° 1.8 mm 7 mps 613 mmHg 94%
    06:00 0°C° 3.4 mm 7 mps 612 mmHg 94%
    07:00 0°C° 3.4 mm 7 mps 612 mmHg 94%
    08:00 -1°C° 3.4 mm 7 mps 612 mmHg 93%
    09:00 0°C° 0.8 mm 7 mps 612 mmHg 88%
    10:00 +1°C° 0.8 mm 6 mps 612 mmHg 83%
    11:00 +1°C° 0.8 mm 6 mps 613 mmHg 78%
    12:00 +1°C° 0.1 mm 5 mps 613 mmHg 74%
    13:00 +2°C° 0.1 mm 5 mps 613 mmHg 69%
    14:00 +2°C° 0.1 mm 5 mps 613 mmHg 65%
    15:00 +2°C° 0.2 mm 5 mps 613 mmHg 65%
    16:00 +1°C° 0.2 mm 4 mps 613 mmHg 66%
    17:00 +2°C° 0.2 mm 3 mps 613 mmHg 67%
    18:00 +1°C° 0.1 mm 3 mps 613 mmHg 73%
    19:00 +1°C° 0.1 mm 2 mps 613 mmHg 79%
    20:00 -2°C° 0.1 mm 2 mps 613 mmHg 85%
    21:00 0°C° 0 mm 1 mps 613 mmHg 86%
    22:00 0°C° 0 mm 1 mps 613 mmHg 86%
    23:00 -1°C° 0 mm 1 mps 613 mmHg 87%

    5 March, Thursday

    Time Temperature Precipitation Wind Pressure Humidity
    00:00 -1°C° 0 mm 1 mps 613 mmHg 87%
    01:00 -1°C° 0 mm 1 mps 613 mmHg 87%
    02:00 -3°C° 0 mm 0 mps 613 mmHg 87%
    03:00 -2°C° 0 mm 1 mps 613 mmHg 88%
    04:00 -2°C° 0 mm 1 mps 613 mmHg 88%
    05:00 -2°C° 0 mm 1 mps 613 mmHg 89%
    06:00 -2°C° 0 mm 1 mps 613 mmHg 89%
    07:00 -2°C° 0 mm 1 mps 614 mmHg 89%
    08:00 -1°C° 0 mm 1 mps 614 mmHg 89%
    09:00 -1°C° 0.2 mm 1 mps 615 mmHg 87%
    10:00 0°C° 0.2 mm 1 mps 615 mmHg 84%
    11:00 -1°C° 0.2 mm 2 mps 615 mmHg 81%
    12:00 -1°C° 0.3 mm 2 mps 615 mmHg 79%
    13:00 -1°C° 0.3 mm 2 mps 615 mmHg 77%
    14:00 -1°C° 0.3 mm 2 mps 615 mmHg 76%
    15:00 -1°C° 0.7 mm 2 mps 615 mmHg 76%
    16:00 -2°C° 0.7 mm 2 mps 615 mmHg 77%
    17:00 -2°C° 0.7 mm 2 mps 615 mmHg 78%
    18:00 -3°C° 0.1 mm 2 mps 615 mmHg 79%
    19:00 -4°C° 0.1 mm 2 mps 616 mmHg 80%
    20:00 -5°C° 0.1 mm 2 mps 616 mmHg 81%
    21:00 -5°C° 0 mm 2 mps 616 mmHg 81%
    22:00 -4°C° 0 mm 1 mps 616 mmHg 80%
    23:00 -4°C° 0 mm 1 mps 616 mmHg 79%
    Show more